ONEWEB-0087 (45451 NORAD) Tracking and Keplerian Element Data

This shows tracking and keplerian element data for the satellite.

Feedback or suggestion? Click here.




ElementValue
Catalog45451
NameONEWEB-0087
Epoch Orbit3208
Epoch Day297.91667824
Epoch Year2020
RAAN71.7459
Inclination87.793
Eccentricity0.0024848
Argument of Perigee251.7454
Mean Anonmoly44.1711
Mean Motion13.97153832
Decay Rate-0.0001704
L11 45451U 20020AD 20297.91667824 -.00017040 00000-0 -12208-1 0 9994
L22 45451 87.7930 71.7459 0024848 251.7454 44.1711 13.97153832 32085

Live tracking and technical data element details for ONEWEB-0087 (NORAD 45451). ONEWEB-0087 can be tracked NOW for your location showing map with azimuth and elevation plus other details from your city location.

Track the satellite on the map from your city or location and see movement details for azimuth, elevation, latitude, longitude, range, height, and movement on the map or in text.







IsCatalogInMostPopularTable: catalog: 45451, numindb: 49
Update: records affected: 1



GetName: 45451 ONEWEB-0087

Hit Count: updated at: Sat, 24 Oct 2020 23:06:25 GMT